Regional Weather Roundup
Issued by NWS

Home | Current Version | Previous Version | Graphics & Text | Print | Product List | Glossary Off
Versions: 1 2 3 4 5 6 7 8 9 10 11 12 13 14 15 16 17 18 19 20 21 22 23 24 25 26 27 28 29 30 31 32 33 34 35 36 37 38 39 40 41 42 43 44 45 46 47 48 49 50

000
ASUS43 KMPX 270210
RWRMN
WEATHER ROUNDUP FOR MINNESOTA
NATIONAL WEATHER SERVICE TWIN CITIES/CHANHASSEN MN
900 PM CDT THU MAR 26 2015


NOTE: "FAIR" INDICATES FEW OR NO CLOUDS BELOW 12,000 FEET WITH NO
SIGNIFICANT WEATHER AND/OR OBSTRUCTIONS TO VISIBILITY. N/A MEANS
CURRENT SKY AND/OR WEATHER CONDITIONS ARE NOT AVAILABLE.

MNZ060>063-068>070-270300-
   Twin Cities Metro

CITY           SKY/WX    TMP DP  RH WIND       PRES   REMARKS
TWIN CITIES    CLEAR     30   8  39 N8        30.17R WCI  22
ST PAUL        CLEAR     29   9  43 NW10      30.18R WCI  20
CRYSTAL        CLEAR     29   7  39 N6        30.16R WCI  23
BLAINE         PTCLDY    30  10  43 NW9       30.16R WCI  22
LAKEVILLE      CLEAR     27  10  50 N7        30.16R WCI  19
EDEN PRAIRIE   CLEAR     29   8  41 N5        30.16R WCI  24
SOUTH ST PAUL  CLEAR     31   8  38 N8        30.17R WCI  23
LAKE ELMO      FAIR      30   9  40 N5        30.17R WCI  25
$$
MNZ001>005-007-008-013>017-022>024-027-028-270300-
   Northwest Minnesota

CITY           SKY/WX    TMP DP  RH WIND       PRES   REMARKS
BEMIDJI        CLEAR     21  -3  35 N5        30.22R WCI  14
HALLOCK        CLEAR     23   9  54 N8        30.31S WCI  14
ROSEAU         CLEAR     23   9  54 N7        30.28R WCI  15
WARROAD        CLEAR     21  10  63 NW6       30.27S WCI  14
THIEF RVR FALL CLEAR     23   7  50 NW9       30.28R WCI  13
CROOKSTON      CLEAR     25  14  63 N8        30.31R WCI  16
FOSSTON        CLEAR     19   9  63 NW8       30.26R WCI   9
DETROIT LAKES  CLEAR     25  14  63 N10       30.25R WCI  15
MOORHEAD       CLEAR     23   9  54 N7        30.30R WCI  15
PARK RAPIDS    CLEAR     25  -2  31 N7        30.20R WCI  17
MAHNOMEN       FAIR      23  12  62 N8        30.25R WCI  14
$$
MNZ006-009>011-018-025>026-270300-
   North Central Minnesota

CITY           SKY/WX    TMP DP  RH WIND       PRES   REMARKS
BAUDETTE       CLEAR     20   4  50 N8        30.25R WCI  10
FLAG ISLAND    CLEAR     19   7  58 N6        30.27R WCI  11
INTL FALLS     CLEAR     19   2  47 N7        30.23R WCI  10
WASKISH        CLEAR     21   3  45 CALM      30.25R
BIG FORK       CLEAR     21   1  42 N5        30.22R WCI  15
LONGVILLE      CLEAR     23   1  39 NW6       30.21R WCI  16
GRAND RAPIDS   CLEAR     25   0  33 N8        30.18R WCI  16
ORR            CLEAR     18  -2  41 CALM      30.19R
COOK           CLEAR     18   0  45 CALM      30.21R
WALKER         FAIR      22  -5  31 N3        30.22R
$$
MNZ012-019>021-037-270300-
   Northeast Minnesota

CITY           SKY/WX    TMP DP  RH WIND       PRES   REMARKS
DULUTH         CLEAR     22   2  42 N8        30.16R WCI  12
ELY            CLEAR     18  -2  41 N5        30.17R WCI  11
HIBBING        CLEAR     21  -2  36 N8        30.18R WCI  11
EVELETH        CLEAR     23  -4  30 N7        30.19R WCI  15
DULUTH HARBOR  CLEAR     28   5  37 N16       30.21R WCI  17
TWO HARBORS    CLEAR     25   3  39 CALM      30.16R
SILVER BAY     CLEAR     21   0  39 N5        30.17R WCI  15
GRAND MARAIS     N/A     22   3  44 NE5       30.21R WCI  16
G MARAIS ARPRT CLEAR     12   0  57 N7        30.12R WCI   2
$$
MNZ029>031-032-039>041-046>048-054>057-064-270300-
   West Central Minnesota

CITY           SKY/WX    TMP DP  RH WIND       PRES   REMARKS
FERGUS FALLS   CLEAR     25   9  50 N8        30.28R WCI  16
WHEATON        CLEAR     25  12  58 N9        30.29R WCI  15
MORRIS         CLEAR     27  16  63 N12       30.23R WCI  16
ALEXANDRIA     CLEAR     25  11  55 NW12      30.21R WCI  14
ELBOW LAKE     FAIR      25  11  57 N13       30.24R WCI  13
WADENA         CLEAR     21  10  63 N8        30.21R WCI  12
GLENWOOD       CLEAR     27  14  59 NW12      30.21R WCI  16
APPLETON       CLEAR     28  16  59 N12       30.24R WCI  18
BENSON         CLEAR     25  14  63 N7        30.23R WCI  17
ORTONVILLE     CLEAR     27  14  59 N14       30.25R WCI  15
MADISON        CLEAR     28  16  59 N10       30.24R WCI  19
WILLMAR        FAIR      28  16  59 NW13      30.21R WCI  18
$$
MNZ033>034-036-042>043-049>051-058-059-270300-
   Central Minnesota

CITY           SKY/WX    TMP DP  RH WIND       PRES   REMARKS
ST CLOUD       CLEAR     27   7  42 N9        30.18R WCI  18
SAUK CENTRE    FAIR      26   8  46 N7        30.20R WCI  18
PAYNESVILLE    CLEAR     25   9  51 NW7       30.19R WCI  17
AITKIN         CLEAR     25   7  46 N6        30.17R WCI  18
PINE RIVER     CLEAR     25   1  36 N7        30.23R WCI  17
BRAINERD       FAIR      25   2  37 N15G22    30.20R WCI  13
STAPLES        CLEAR     25  -2  30 N8        30.21R WCI  16
LONG PRAIRIE   FAIR      27   5  39 NW6       30.20R WCI  20
LITTLE FALLS   CLEAR     28   0  29 N7        30.20R WCI  21
LITCHFIELD     CLEAR     28  16  59 NW6       30.19R WCI  22
BUFFALO        CLEAR     28   7  40 N6        30.18R WCI  22
MAPLE LAKE     CLEAR     28  12  51 N8        30.19R WCI  20
$$
MNZ037-044-045-052-053-270300-
   East Central Minnesota

CITY           SKY/WX    TMP DP  RH WIND       PRES   REMARKS
PRINCETON      CLEAR     28   9  43 NW7       30.18R WCI  21
MORA           CLEAR     27   5  39 CALM      30.19R
CAMBRIDGE      CLEAR     30  12  47 N5        30.16R WCI  25
RUSH CITY      CLEAR     27   8  44 N5        30.18R WCI  21
MOOSE LAKE     CLEAR     27   1  33 CALM      30.16R
HINCKLEY       FAIR      28   5  37 N6        30.17R WCI  22
CLOQUET        CLEAR     23  -2  33 N6        30.17R WCI  16
MCGREGOR       CLEAR     27   5  39 N5        30.18R WCI  21
$$
MNZ071>073-080-081-089-090-097-098-270300-
   Southwest Minnesota

CITY           SKY/WX    TMP DP  RH WIND       PRES   REMARKS
MONTEVIDEO     CLEAR     27  16  63 N13       30.23R WCI  16
GRANITE FALLS  CLEAR     28  15  57 NW9       30.23R WCI  19
CANBY          CLEAR     28  15  57 N8        30.24R WCI  20
MARSHALL       CLEAR     27  14  59 N10       30.22R WCI  17
REDWOOD FALLS  CLEAR     26  17  68 NW6       30.20R WCI  19
OLIVIA         CLEAR     27  19  74 NW6       30.19R WCI  20
PIPESTONE      CLEAR     27  16  63 N6        30.19R WCI  20
WINDOM         CLEAR     25  18  74 NW9       30.19R WCI  15
WORTHINGTON    CLEAR     25  16  68 N10       30.20R WCI  15
JACKSON        CLOUDY    30  18  59 VRB15G24  30.19R WCI  19
TRACY          CLEAR     26  20  76 NW3       30.21R
SLAYTON        CLEAR     25  16  66 CALM      30.20R
$$
MNZ065>067-074>077-082>085-091>093-270300-
   South Central Minnesota

CITY           SKY/WX    TMP DP  RH WIND       PRES   REMARKS
MANKATO        CLEAR     27  18  69 NW9       30.17R WCI  17
NEW ULM        CLEAR     27  18  69 NW9       30.19R WCI  17
ST JAMES       CLOUDY    30  19  64 NW15      30.20R WCI  19
FAIRMONT       CLOUDY    30  10  43 N13       30.17R WCI  20
GLENCOE        PTCLDY    27  19  73 NW5       30.17R WCI  21
FARIBAULT      PTCLDY    28  18  64 NW7       30.16R WCI  21
OWATONNA       PTCLDY    27  18  69 W8        30.14S WCI  18
WASECA         CLEAR     27  19  74 NW7       30.17R WCI  19
ALBERT LEA     CLOUDY    30  21  69 NW9       30.14R WCI  22
$$
MNZ078>079-086>088-094>096-270300-
   Southeast Minnesota

CITY           SKY/WX    TMP DP  RH WIND       PRES   REMARKS
ROCHESTER      CLOUDY    29  19  66 NW13      30.11R WCI  19
RED WING       CLEAR     30   9  40 N6        30.14R WCI  24
STANTON        FAIR      29  12  48 N10       30.14R WCI  20
DODGE CENTER   MOCLDY    28  19  69 NW13      30.12R WCI  18
WINONA         PTCLDY    32  19  59 NW5       30.13R WCI  27
AUSTIN         CLOUDY    28  21  74 NW10      30.13R WCI  19
PRESTON        CLOUDY    29  20  67 N8        30.11R WCI  21
$$
ABBREVIATIONS USED IN REMARKS
   TC - TEMPERATURES IN CELSIUS
  WCI - WIND CHILL INDEX
   HX - HEAT INDEX
  VSB - VISIBILITY
$$



USA.gov is the U.S. government's official web portal to all federal, state and local government web resources and services.